Regional Weather Roundup
Issued by NWS State College, PA

Home | Current Version | Previous Version | Text Only | Print | Product List | Glossary On
Versions: 1 2 3 4 5 6 7 8 9 10 11 12 13 14 15 16 17 18 19 20 21 22 23 24 25 26 27 28 29 30 31 32 33 34 35 36 37 38 39 40 41 42 43 44 45 46 47 48 49 50
000
ASUS41 KCTP 300103
RWRCTP

REGIONAL WEATHER ROUNDUP
NATIONAL WEATHER SERVICE STATE COLLEGE PA
800 PM EST THU JAN 29 2015

Note: "fair" indicates few or no clouds below 12,000 feet with no
significant weather and/or obstructions to visibility.

* = STATION THAT DOES NOT REPORT PRECIPITATION /E.G. RAIN...SNOW...ETC/
    THUNDER OR FOG.

PAZ002>004-007>009-013>016-020>023-029>032-300200-
WESTERN PENNSYLVANIA

CITY           SKY/WX    TMP DP  RH WIND       PRES   REMARKS
ERIE           LGT SNOW  32  29  88 W10       29.82R VSB 1
MEADVILLE      LGT SNOW  32  30  92 W13       29.78R VSB 3/4
FRANKLIN*      CLOUDY    34  30  86 SW7       29.78S
NEW CASTLE     LGT RAIN  35  34  96 SW13      29.83R FOG
BEAVER COUNTY  LGT RAIN  36  34  93 W14G20    29.82R
BUTLER*        CLOUDY    37  36  93 SW13G20   29.83R
PITTSBURGH INT LGT RAIN  38  35  89 W15G22    29.83R
PITTSBURGH     LGT RAIN  37  33  85 SW16G22   29.82R FOG
INDIANA*       CLOUDY    37  37 100 W10       29.83S FOG
LATROBE        LGT RAIN  39  39 100 SW17      29.83S
WASHINGTON CO* CLOUDY    37  34  87 W15G26    29.88R
$$

PAZ004>006-010>012-017>019-024>028-033>037-041-042-045-046-049>053-300200-
CENTRAL PENNSYLVANIA

CITY           SKY/WX    TMP DP  RH WIND       PRES   REMARKS
BRADFORD       LGT SNOW  27  24  89 SE6       29.72F VSB 1
DUBOIS         LGT SNOW  31  30  96 VRB5      29.75F FOG
CLEARFIELD     LGT SNOW  25  24  96 NE6       29.81F FOG
JOHNSTOWN      FRZ RAIN  30  28  92 S8        29.77F FOG
ALTOONA        LGT SNOW  27  23  85 SW3       29.86F FOG
STATE COLLEGE  DRIZZLE   25  23  93 SW6       29.88F
WILLIAMSPORT   LGT SNOW  26  20  77 E8G20     29.95F
SELINSGROVE    LGT SNOW  27  24  89 S8        29.98F FOG
FT INDIANTOWN  LGT SNOW  25  23  93 SE2       30.02F
CAPITAL CITY   CLOUDY    27  24  89 E8        30.01F
HARRISBURG     FLURRIES  27  24  89 E7        30.01F
YORK           CLOUDY    30  24  78 VRB6G16   29.99F
$$

PAZ038>040-043-044-047-048-054-055-060>062-067>071-300200-
EASTERN PENNSYLVANIA

CITY           SKY/WX    TMP DP  RH WIND       PRES   REMARKS
SCRANTON       LGT SNOW  25  18  74 MISG      29.95F
MOUNT POCONO   LGT SNOW  20  15  81 SE12      29.92F WCI   8
ALLENTOWN      LGT SNOW  28  20  71 SW9       30.05F
QUAKERTOWN*    CLOUDY    28  19  69 SW9       30.06F
READING        MIX PCPN  27  24  89 E5        30.03F
LANCASTER      CLOUDY    27  23  85 S12       30.02F
COATESVILLE    FLURRIES  28  27  93 S8        30.03F
POTTSTOWN      FLURRIES  28  21  75 S3        30.07F
BLUE BELL      CLOUDY    32  21  64 S7        30.06F
DOYLESTOWN     CLOUDY    30  14  51 S5        30.06R
WILLOW GROVE   NOT AVBL
NORTH PHILA    CLOUDY    34  17  50 SW6       30.10F
PHILADELPHIA   FLURRIES  34  20  56 S8        30.09F
$$


USA.gov is the U.S. government's official web portal to all federal, state and local government web resources and services.